Location: Ferchesar
(52.6477°N, 12.4298°E)
Time: 14:50:26
(UTC+02:00)

Tiros 1 despin weight - Pass Details

Date: 06 March 2021
Orbit: 593 x 641 km, 48.2° (Epoch: 12 April)

Event Time Altitude Azimuth Distance (km) Brightness Sun altitude
Exits shadow 03:54:12 12° 150° (SSE) 1,873 ? -26.1°
Drops below altitude 10° 03:54:40 10° 147° (SSE) 2,026 ? -26.0°
Sets 03:57:14 0° 136° (SE) 2,935 ? -25.7°
